Regional Weather Roundup
Issued by NWS

Home | Current Version | Previous Version | Text Only | Print | Product List | Glossary Off
Versions: 1 2 3 4 5 6 7 8 9 10 11 12 13 14 15 16 17 18 19 20 21 22 23 24 25 26 27 28 29 30 31 32 33 34 35 36 37 38 39 40 41 42 43 44 45 46 47 48 49 50

985
ASUS44 KLIX 300907
RWRLA
LOUISIANA WEATHER ROUNDUP
NATIONAL WEATHER SERVICE NEW ORLEANS LA
400 AM CDT MON MAR 30 2015

NOTE: "FAIR" INDICATES FEW OR NO CLOUDS BELOW 12,000 FEET WITH NO
      SIGNIFICANT WEATHER AND/OR OBSTRUCTIONS TO VISIBILITY.
      SKY/WX - SKY CONDITION AND SIGNIFICANT WEATHER.
      TMP - AIR TEMPERATURE.    DP   - DEWPOINT TEMPERATURE.
      RH  - RELATIVE HUMIDITY.  PRES - PRESSURE.
      HX  - HEAT INDEX.         WCI  - WIND CHILL INDEX.

*  THESE STATIONS ARE NOT NWS OR FAA STATIONS AND ARE NOT UNDER
   NWS QUALITY CONTROL.

LAZ040-048-061>063-065-066-069-301000-
SOUTHEAST LOUISIANA

CITY           SKY/WX    TMP DP  RH WIND       PRES   REMARKS
N.O. AUDUBON   NOT AVBL
N.O. INTL ARPT CLEAR     63  60  90 CALM      30.18R
N.O. LAKEFRONT CLEAR     67  62  84 NW3       30.19R
SLIDELL        FOG       57  57 100 CALM      30.18S VSB 1/4
BATON ROUGE    CLEAR     60  58  92 CALM      30.17F
BOOTHVILLE     CLEAR     68  63  84 S9        30.17F
BELLE CHASSE   MOCLDY    57  56  96 CALM      30.17R FOG
BOGALUSA*      FOG       59  56  91 CALM      30.20F VSB 1/4
GALLIANO*      SUNNY     59  58  96 CALM      30.17S
NEW ROADS*     CLOUDY    59  58  97 CALM      30.18S
GONZALES*      FAIR      59  59 100 CALM      30.18S FOG
HAMMOND*       CLEAR     59  57  94 CALM      30.19F
HOUMA*         CLEAR     65  62  90 CALM      30.17R
PORT FOURCHON* MOSUNNY   70  66  88 S9        30.19F

$$

LAZ041-044-053-054-301000-
SOUTHWEST LOUISIANA

CITY           SKY/WX    TMP DP  RH WIND       PRES   REMARKS
LAKE CHARLES   PTCLDY    64  62  93 CALM      30.15F
LAFAYETTE      PTCLDY    64  63  96 CALM      30.17F FOG
PATTERSON      CLEAR     61  57  88 CALM      30.19S
SALT POINT       N/A     63  61  93 CALM      30.16R
NEW IBERIA     MOCLDY    60  58  92 CALM      30.17F FOG
CHENAULT AIRPK FOG       61  61 100 CALM      30.16R VSB 1/4

$$

LAZ027-028-301000-
CENTRAL LOUISIANA

CITY           SKY/WX    TMP DP  RH WIND       PRES   REMARKS
FORT POLK      PTCLDY    59  58  96 E1        30.16S
ALEXANDRIA INT PTCLDY    58  58 100 SE3       30.16F
ALEXANDRIA     MOCLDY    57  56  96 CALM      30.17F

$$

LAZ001-002-301000-
NORTHWEST LOUISIANA

CITY           SKY/WX    TMP DP  RH WIND       PRES   REMARKS
SHREVEPORT     PTCLDY    65  60  84 S7        30.12S
BARKSDALE AFB  PTCLDY    65  60  83 SW9       30.12S
DTN SHREVEPORT CLOUDY    66  59  78 SW14      30.13R

$$

LAZ014-016-301000-
NORTHEAST LOUISIANA

CITY           SKY/WX    TMP DP  RH WIND       PRES   REMARKS
MONROE         CLOUDY    66  60  81 W12       30.15R
TALLULAH       PTCLDY    65  59  81 SW7       30.14S

$$




USA.gov is the U.S. government's official web portal to all federal, state and local government web resources and services.